PROFILE

 METAR AND TAF INFORMATION
ADDS - METARS form results

(2331 UTC 26 May 2019)
http://aviationweather.gov/metar/data/
 
GBYD 262300Z 27008KT CAVOK 22/20 Q1013
TAF GBYD 261730Z 2618/2724 30008KT CAVOK 

 AIRPORT MAP

 RUNWAY INFORMATION
Runway 14 Runway length 11811 ft Runway width 148 ft
Runway elevation 88 ft Runway displaced threshold 0 ft Runway heading 131
Runway 32 Runway length 11811 ft Runway width 148 ft
Runway elevation 74 ft Runway displaced threshold 0 ft Runway heading 311

 AIRPORT FREQUENCIES
Type APP Name APP Frequency 121.3 MHZ
Type GND Name GND Frequency 121.9 MHZ
Type TWR Name TWR Frequency 118.3 MHZ

 AIRPORT NEAR NAVIGATION AIDS
Type VOR-DME Name Banjul Frequency 112900 KHZ
Type NDB Name Banjul Frequency 256 KHZ